This is the latest recevied weather packets stored in our database for station/object WC4PEM-9. If no packets are shown the sender has not sent any weather packets the latest 10 day(s).
| Time | Temp. | Humidity | Pressure | Rain* | Wind** | Luminosity | Snow |
|---|---|---|---|---|---|---|---|
| 1777759117 | 21.11° C | 93% | 1010.1 hPa | 0 mm | - | - | - |
| 1777758851 | 21.11° C | 93% | 1010.1 hPa | 0 mm | - | - | - |
| 1777758817 | 21.11° C | 93% | 1010 hPa | 0 mm | - | - | - |
| 1777758517 | 21.11° C | 93% | 1010.1 hPa | 0 mm | - | - | - |
| 1777758217 | 21.11° C | 93% | 1009.9 hPa | 0 mm | - | - | - |
| 1777757917 | 21.11° C | 92% | 1009.9 hPa | 0 mm | - | - | - |
| 1777757617 | 21.11° C | 92% | 1010.1 hPa | 0.25 mm | - | - | - |
| 1777757484 | 21.11° C | 92% | 1010.1 hPa | 0.51 mm | - | - | - |
| 1777757317 | 21.11° C | 92% | 1010.1 hPa | 0.51 mm | - | - | - |
| 1777757017 | 20.56° C | 92% | 1010.2 hPa | 0.51 mm | - | - | - |
| 1777756905 | 20.56° C | 92% | 1010.2 hPa | 0.51 mm | - | - | - |
| 1777756717 | 20.56° C | 92% | 1010.2 hPa | 0.51 mm | - | - | - |
| 1777756513 | 20.56° C | 92% | 1010.6 hPa | 0.51 mm | - | - | - |
| 1777756417 | 20.56° C | 92% | 1010.6 hPa | 0.51 mm | - | - | - |
| 1777756117 | 20.56° C | 92% | 1010.3 hPa | 0.51 mm | - | - | - |
| 1777755817 | 20° C | 93% | 1010.3 hPa | 0.76 mm | - | - | - |
| 1777755568 | 20° C | 93% | 1010.5 hPa | 1.52 mm | - | - | - |
| 1777755517 | 20° C | 93% | 1010.5 hPa | 1.52 mm | - | - | - |
| 1777755309 | 20° C | 93% | 1010.4 hPa | 2.54 mm | - | - | - |
| 1777755256 | 20° C | 93% | 1010.4 hPa | 2.54 mm | - | - | - |
| 1777755217 | 20° C | 93% | 1010.4 hPa | 2.54 mm | - | - | - |
| 1777754917 | 20° C | 93% | 1010.2 hPa | 3.3 mm | - | - | - |
| 1777754766 | 20° C | 93% | 1010.1 hPa | 3.3 mm | - | - | - |
| 1777754617 | 20° C | 93% | 1010.1 hPa | 3.3 mm | - | - | - |
| 1777754501 | 20° C | 93% | 1010.2 hPa | 3.3 mm | - | - | - |
* Rain latest hour (hover to see other rain measurements)
** Current wind speed in m/s (hover to see current wind gust speed)